This is the latest recevied weather packets stored in our database for station/object N1HQ. If no packets are shown the sender has not sent any weather packets the latest 10 day(s).
| Time | Temp. | Humidity | Pressure | Rain* | Wind** | Luminosity | Snow |
|---|---|---|---|---|---|---|---|
| 1787946883 | 27.22° C | 90% | 1013.7 hPa | 0 mm | - | - | - |
| 1787946591 | 27.78° C | 90% | 1013.9 hPa | 0 mm | - | - | - |
| 1787946348 | 27.78° C | 89% | 1013.9 hPa | 0 mm | - | - | - |
| 1787946077 | 27.78° C | 89% | 1013.7 hPa | 0 mm | - | - | - |
| 1787945813 | 28.33° C | 89% | 1013.7 hPa | 0 mm | - | - | - |
| 1787945531 | 28.33° C | 88% | 1013.7 hPa | 0 mm | - | - | - |
| 1787945233 | 28.33° C | 87% | 1013.9 hPa | 0 mm | - | - | - |
| 1787944963 | 28.89° C | 87% | 1014 hPa | 0 mm | - | - | - |
| 1787944678 | 28.89° C | 86% | 1014 hPa | 0 mm | - | - | - |
| 1787944408 | 29.44° C | 86% | 1014.2 hPa | 0 mm | - | - | - |
| 1787944113 | 29.44° C | 83% | 1014.2 hPa | 0 mm | - | - | - |
| 1787943871 | 29.44° C | 82% | 1014.2 hPa | 0 mm | - | - | - |
| 1787943583 | 30° C | 81% | 1014.1 hPa | 0 mm | - | - | - |
| 1787943283 | 30° C | 80% | 1013.9 hPa | 0 mm | - | - | - |
| 1787943028 | 30.56° C | 82% | 1013.9 hPa | 0 mm | - | - | - |
| 1787942728 | 30° C | 82% | 1014 hPa | 0 mm | - | - | - |
| 1787942470 | 30° C | 83% | 1014.1 hPa | 0 mm | - | - | - |
| 1787942190 | 30° C | 83% | 1014 hPa | 0 mm | - | - | - |
| 1787941941 | 30° C | 82% | 1014.1 hPa | 0 mm | - | - | - |
| 1787941668 | 30.56° C | 82% | 1014.1 hPa | 0 mm | - | - | - |
| 1787941373 | 30.56° C | 81% | 1014.2 hPa | 0 mm | - | - | - |
| 1787941088 | 31.11° C | 78% | 1014.2 hPa | 0 mm | - | - | - |
| 1787940803 | 31.67° C | 78% | 1014.3 hPa | 0 mm | - | - | - |
| 1787940511 | 31.67° C | 76% | 1014.3 hPa | 0 mm | - | - | - |
| 1787940271 | 31.67° C | 77% | 1014.3 hPa | 0 mm | - | - | - |
* Rain latest hour (hover to see other rain measurements)
** Current wind speed in m/s (hover to see current wind gust speed)